Boscobel, WI

1:02 AM CDT on September 23, 2017 (GMT -0500)
Boscobel

Weather History for KOVS - May, 2013

Change the Weather History Date:

Thursday, May 30, 2013

  Actual Average (KPDC) Record (KPDC)
Temperature  
Mean Temperature 72 °F -  
Max Temperature 82 °F 76 °F 92 °F (1953)
Min Temperature 63 °F 52 °F 35 °F (1981)
Cooling Degree Days 7    
Growing Degree Days 22 (Base 50)    
Moisture  
Dew Point 64 °F    
Average Humidity 81    
Maximum Humidity 97    
Minimum Humidity 58    
Precipitation  
Precipitation 0.21 in - - ()
Sea Level Pressure  
Sea Level Pressure 29.72 in    
Wind  
Wind Speed 5 mph (South)    
Max Wind Speed 15 mph    
Max Gust Speed 26 mph    
Visibility 9 miles    
Events Rain , Thunderstorm    
Averages and records for this station are not official NWS values.
T = Trace of Precipitation, MM = Missing Value Source: NWS Daily Summary

Daily Weather History Graph

Daily Weather History Graph

Search for Another Location

Airport or City:

Trip Planner

Search our weather history database for the weather conditions in past years. The results will help you decide how hot, cold, wet, or windy it might be!

Date:

Astronomy

May. 30, 2013 Rise Set
Actual Time 5:26 AM CDT 8:34 PM CDT
Civil Twilight 4:52 AM CDT 9:08 PM CDT
Nautical Twilight 4:08 AM CDT 9:53 PM CDT
Astronomical Twilight 3:15 AM CDT 10:46 PM CDT
Moon 12:29 AM CDT (5/30) 11:41 AM CDT (5/30)
Length of Visible Light 16h 16m
Length of Day
15h 07m
Waning Gibbous, 62% of the Moon is Illuminated
May 30
Waning Gibbous
May 31
Last Quarter
Jun 8
New
Jun 16
First Quarter
Jun 23
Full

Hourly Weather History & Observations

Time (CDT) Temp. Heat Index Dew Point Humidity Pressure Visibility Wind Dir Wind Speed Gust Speed Precip Events Conditions
12:14 AM 64.4 °F - 62.6 °F 94% 29.83 in 10.0 mi Calm Calm - N/A Thunderstorm Scattered Clouds
12:29 AM 64.4 °F - 62.6 °F 94% 29.82 in 10.0 mi Calm Calm - N/A   Mostly Cloudy
12:53 AM 64.0 °F - 62.1 °F 93% 29.81 in 10.0 mi Calm Calm - N/A   Scattered Clouds
1:53 AM 64.0 °F - 62.1 °F 93% 29.79 in 10.0 mi Calm Calm - N/A   Clear
2:53 AM 64.0 °F - 62.1 °F 93% 29.79 in 10.0 mi NE 3.5 mph - N/A   Clear
3:53 AM 63.0 °F - 62.1 °F 97% 29.78 in 6.0 mi NE 3.5 mph - N/A   Clear
4:53 AM 63.0 °F - 62.1 °F 97% 29.76 in 7.0 mi Calm Calm - 0.01 in   Clear
5:53 AM 68.0 °F - 64.0 °F 87% 29.76 in 10.0 mi Calm Calm - N/A   Scattered Clouds
6:53 AM 72.0 °F - 64.9 °F 78% 29.75 in 10.0 mi South 5.8 mph - N/A   Clear
7:53 AM 73.9 °F - 64.9 °F 73% 29.76 in 10.0 mi South 8.1 mph - N/A   Clear
8:53 AM 77.0 °F - 66.9 °F 71% 29.74 in 10.0 mi SSE 8.1 mph 18.4 mph N/A   Clear
9:53 AM 78.1 °F - 66.9 °F 68% 29.73 in 10.0 mi South 9.2 mph 18.4 mph N/A   Partly Cloudy
10:53 AM 80.1 °F 82.3 °F 66.9 °F 64% 29.74 in 10.0 mi South 9.2 mph 19.6 mph N/A   Mostly Cloudy
11:53 AM 75.9 °F - 69.1 °F 79% 29.74 in 8.0 mi SSW 9.2 mph - 0.04 in Rain Light Rain
12:53 PM 80.1 °F 82.1 °F 66.0 °F 62% 29.73 in 10.0 mi South 12.7 mph 25.3 mph 0.00 in   Mostly Cloudy
1:53 PM 81.0 °F 82.7 °F 64.9 °F 58% 29.71 in 10.0 mi South 15.0 mph 26.5 mph N/A   Overcast
2:53 PM 80.1 °F 81.7 °F 64.0 °F 58% 29.68 in 10.0 mi SSW 9.2 mph - N/A   Overcast
3:20 PM 71.6 °F - 66.2 °F 83% 29.71 in 2.5 mi South 12.7 mph 23.0 mph 0.06 in Rain , Thunderstorm Heavy Rain
3:31 PM 71.6 °F - 66.2 °F 83% 29.70 in 9.0 mi South 10.4 mph 20.7 mph 0.07 in Rain Light Rain
3:39 PM 71.6 °F - 66.2 °F 83% 29.70 in 10.0 mi South 8.1 mph 19.6 mph 0.07 in Thunderstorm Mostly Cloudy
3:53 PM 72.0 °F - 66.9 °F 84% 29.69 in 10.0 mi South 6.9 mph - 0.07 in Rain , Thunderstorm Light Rain
4:00 PM 71.6 °F - 66.2 °F 83% 29.70 in 10.0 mi South 8.1 mph - 0.00 in   Scattered Clouds
4:53 PM 73.9 °F - 66.9 °F 79% 29.66 in 10.0 mi South 8.1 mph - 0.00 in   Clear
5:53 PM 75.0 °F - 68.0 °F 79% 29.65 in 10.0 mi Variable 3.5 mph - N/A   Mostly Cloudy
6:26 PM 73.4 °F - 66.2 °F 78% 29.68 in 9.0 mi South 9.2 mph 20.7 mph 0.00 in Rain , Thunderstorm Light Rain
6:53 PM 70.0 °F - 64.9 °F 84% 29.65 in 3.0 mi South 13.8 mph 20.7 mph 0.08 in Rain , Thunderstorm Rain
7:13 PM 69.8 °F - 64.4 °F 83% 29.64 in 10.0 mi East 4.6 mph - 0.01 in   Scattered Clouds
7:53 PM 69.1 °F - 64.9 °F 87% 29.67 in 10.0 mi Calm Calm - 0.01 in   Partly Cloudy
8:53 PM 70.0 °F - 62.1 °F 76% 29.69 in 10.0 mi South 10.4 mph 18.4 mph 0.00 in Rain Light Rain
9:53 PM 68.0 °F - 61.0 °F 78% 29.70 in 10.0 mi South 9.2 mph - 0.00 in   Overcast
10:53 PM 66.0 °F - 59.0 °F 78% 29.70 in 10.0 mi South 10.4 mph 16.1 mph N/A   Clear
11:53 PM 64.9 °F - 59.0 °F 81% 29.72 in 10.0 mi South 9.2 mph - N/A   Partly Cloudy